DW5481 Weather Reports


Display with metric or nautical units.
time (UTC)temp
F
wind
direction
speed
MPH
gust
MPH
rain 1hr
in
rain 24hr
in
rain mn
in
humidity
%
barometer
mb
20260504151102 68 289 6.0 10.0 0.00 0.00 0.00 37 1004.5
20260504150603 67 289 7.0 13.0 0.00 0.00 0.00 38 1004.6
20260504141103 62 301 10.0 12.0 0.00 0.00 0.00 44 1004.7
20260504140602 61 304 7.0 13.0 0.00 0.00 0.00 45 1004.7
20260504130603 54 323 7.0 13.0 0.00 0.00 0.00 56 1004.5
20260504100603 54 120 0.0 1.0 0.00 0.00 0.00 52 1003.7
20260504100103 54 120 0.0 0.0 0.00 0.00 0.00 51 1003.7
20260504081602 58 120 5.0 9.0 0.00 0.00 0.00 43 1004.2
20260504081103 59 120 7.0 13.0 0.00 0.00 0.00 43 1004.3
20260504080603 59 105 4.0 10.0 0.00 0.00 0.00 41 1004.4
20260504060103 58 49 0.0 2.0 0.00 0.00 0.00 39 1006.7
20260504050603 59 49 1.0 3.0 0.00 0.00 0.00 38 1007.3
20260504045603 59 49 0.0 1.0 0.00 0.00 0.00 38 1007.3
20260504045103 59 49 0.0 1.0 0.00 0.00 0.00 38 1007.3
20260504044603 59 49 0.0 1.0 0.00 0.00 0.00 39 1007.4
20260504044102 59 49 0.0 3.0 0.00 0.00 0.00 39 1007.5
20260504043603 59 49 0.0 0.0 0.00 0.00 0.00 39 1007.5
20260504043102 60 49 0.0 0.0 0.00 0.00 0.00 39 1007.5
20260504042603 60 49 0.0 0.0 0.00 0.00 0.00 37 1007.5
20260504042103 60 49 0.0 0.0 0.00 0.00 0.00 37 1007.5
20260504041603 61 49 0.0 0.0 0.00 0.00 0.00 37 1007.6
20260504041103 61 49 0.0 1.0 0.00 0.00 0.00 37 1007.6
20260504040603 61 49 0.0 1.0 0.00 0.00 0.00 37 1007.6
20260504040103 61 49 1.0 3.0 0.00 0.00 0.00 37 1007.7
20260504035602 61 49 2.0 3.0 0.00 0.00 0.00 37 1007.9
20260504035103 61 49 1.0 2.0 0.00 0.00 0.00 37 1007.9
20260504034604 61 49 2.0 3.0 0.00 0.00 0.00 36 1008.0
20260504034103 61 49 1.0 3.0 0.00 0.00 0.00 37 1008.0
20260504033603 61 49 1.0 3.0 0.00 0.00 0.00 37 1008.1
20260504033103 61 49 1.0 2.0 0.00 0.00 0.00 37 1008.2
20260504032603 61 49 0.0 0.0 0.00 0.00 0.00 38 1008.2
20260504032103 61 49 0.0 2.0 0.00 0.00 0.00 38 1008.2
20260504031603 61 49 0.0 1.0 0.00 0.00 0.00 38 1008.3
20260504031103 62 49 1.0 5.0 0.00 0.00 0.00 38 1008.3
20260504030603 62 48 0.0 1.0 0.00 0.00 0.00 38 1008.3
20260504025603 63 48 0.0 0.0 0.00 0.00 0.00 38 1008.3
20260504025103 63 48 0.0 1.0 0.00 0.00 0.00 38 1008.3
20260504024603 63 48 0.0 1.0 0.00 0.00 0.00 37 1008.4
20260504024103 64 48 1.0 2.0 0.00 0.00 0.00 37 1008.3
20260504023603 64 48 1.0 2.0 0.00 0.00 0.00 37 1008.3
20260504022603 65 48 0.0 2.0 0.00 0.00 0.00 36 1008.4
20260504021603 66 49 2.0 5.0 0.00 0.00 0.00 35 1008.3
20260504020603 66 49 2.0 3.0 0.00 0.00 0.00 34 1008.3
20260504020103 67 48 3.0 6.0 0.00 0.00 0.00 33 1008.2
20260504015602 67 48 3.0 7.0 0.00 0.00 0.00 32 1008.3
20260504015103 68 49 3.0 5.0 0.00 0.00 0.00 32 1008.2
20260504014103 69 49 2.0 5.0 0.00 0.00 0.00 30 1008.2
20260504013603 69 49 2.0 6.0 0.00 0.00 0.00 30 1008.1
20260504012604 69 49 2.0 3.0 0.00 0.00 0.00 29 1008.2
20260504012102 70 49 0.0 2.0 0.00 0.00 0.00 29 1008.1
20260504011603 70 49 1.0 2.0 0.00 0.00 0.00 28 1008.1
20260504011103 70 49 2.0 6.0 0.00 0.00 0.00 28 1008.2
20260504005603 71 49 1.0 3.0 0.00 0.00 0.00 28 1008.4
20260504005103 71 49 1.0 3.0 0.00 0.00 0.00 27 1008.5
20260504004603 72 49 1.0 5.0 0.00 0.00 0.00 27 1008.5
20260504004103 72 49 2.0 5.0 0.00 0.00 0.00 26 1008.6
20260504003604 72 49 2.0 6.0 0.00 0.00 0.00 25 1008.6
20260504003103 73 49 1.0 6.0 0.00 0.00 0.00 24 1008.6
20260504002602 73 49 2.0 7.0 0.00 0.00 0.00 24 1008.7
20260504002103 73 49 2.0 6.0 0.00 0.00 0.00 24 1008.7
20260504001602 73 49 3.0 6.0 0.00 0.00 0.00 24 1008.9
20260504001103 73 49 4.0 7.0 0.00 0.00 0.00 24 1008.9
20260504000603 73 49 4.0 7.0 0.00 0.00 0.00 25 1009.0
20260503235602 73 50 5.0 8.0 0.00 0.00 0.00 24 1009.0
20260503235103 73 50 3.0 8.0 0.00 0.00 0.00 24 1009.0
20260503234603 73 49 6.0 8.0 0.00 0.00 0.00 24 1009.0
20260503234103 73 49 3.0 7.0 0.00 0.00 0.00 25 1009.0
20260503233603 73 50 4.0 7.0 0.00 0.00 0.00 23 1009.1
20260503232603 74 51 6.0 12.0 0.00 0.00 0.00 24 1009.2
20260503232103 74 51 3.0 8.0 0.00 0.00 0.00 25 1009.3
20260503231603 74 51 5.0 12.0 0.00 0.00 0.00 23 1009.3
20260503231103 74 53 6.0 12.0 0.00 0.00 0.00 23 1009.3
20260503230603 75 55 6.0 12.0 0.00 0.00 0.00 22 1009.4
20260503230103 75 58 5.0 6.0 0.00 0.00 0.00 21 1009.4
20260503225602 75 58 1.0 3.0 0.00 0.00 0.00 22 1009.4
20260503225103 75 58 2.0 5.0 0.00 0.00 0.00 20 1009.4
20260503224603 75 58 3.0 8.0 0.00 0.00 0.00 22 1009.4
20260503224103 76 59 5.0 8.0 0.00 0.00 0.00 22 1009.5
20260503223603 76 59 6.0 13.0 0.00 0.00 0.00 22 1009.5
20260503223103 76 70 5.0 12.0 0.00 0.00 0.00 21 1009.6
20260503222603 76 71 6.0 9.0 0.00 0.00 0.00 22 1009.6
20260503222103 76 73 5.0 13.0 0.00 0.00 0.00 21 1009.6
20260503221603 77 53 3.0 8.0 0.00 0.00 0.00 21 1009.7
20260503221103 77 52 2.0 7.0 0.00 0.00 0.00 23 1009.6
20260503220603 76 68 2.0 6.0 0.00 0.00 0.00 20 1009.8
20260503215603 77 74 2.0 5.0 0.00 0.00 0.00 19 1009.8
20260503215103 77 78 2.0 6.0 0.00 0.00 0.00 21 1010.0
20260503214603 77 79 6.0 9.0 0.00 0.00 0.00 22 1010.1
20260503214103 76 83 0.0 12.0 0.00 0.00 0.00 22 1010.2
20260503213603 76 75 2.0 6.0 0.00 0.00 0.00 22 1010.3
20260503213103 76 72 6.0 12.0 0.00 0.00 0.00 20 1010.3
20260503212103 76 92 3.0 8.0 0.00 0.00 0.00 23 1010.4
20260503211603 75 99 1.0 7.0 0.00 0.00 0.00 23 1010.4
20260503211103 75 79 6.0 10.0 0.00 0.00 0.00 22 1010.5
20260503210603 75 68 2.0 7.0 0.00 0.00 0.00 23 1010.6
20260503210103 75 66 5.0 13.0 0.00 0.00 0.00 21 1010.7
20260503204603 76 24 2.0 8.0 0.00 0.00 0.00 23 1010.7
20260503204103 76 10 4.0 10.0 0.00 0.00 0.00 23 1010.7
20260503203604 76 320 2.0 6.0 0.00 0.00 0.00 23 1010.8
20260503203103 76 52 2.0 6.0 0.00 0.00 0.00 22 1010.9
20260503202603 76 39 5.0 10.0 0.00 0.00 0.00 22 1011.1
20260503202103 76 36 6.0 13.0 0.00 0.00 0.00 22 1011.2
20260503201603 76 39 1.0 7.0 0.00 0.00 0.00 21 1011.2
20260503201103 76 38 5.0 9.0 0.00 0.00 0.00 22 1011.3
20260503200603 76 51 5.0 12.0 0.00 0.00 0.00 23 1011.4
20260503195603 75 13 5.0 12.0 0.00 0.00 0.00 23 1011.3
20260503195103 75 50 3.0 10.0 0.00 0.00 0.00 24 1011.4
20260503194603 75 153 2.0 13.0 0.00 0.00 0.00 23 1011.5
20260503194104 75 54 6.0 13.0 0.00 0.00 0.00 23 1011.5
20260503193104 75 48 9.0 13.0 0.00 0.00 0.00 22 1011.6
20260503192603 75 49 3.0 12.0 0.00 0.00 0.00 21 1011.6
20260503192104 75 49 6.0 12.0 0.00 0.00 0.00 25 1011.6
20260503191603 75 30 3.0 9.0 0.00 0.00 0.00 22 1011.7
20260503191103 75 301 7.0 10.0 0.00 0.00 0.00 24 1011.8
20260503190604 75 310 7.0 10.0 0.00 0.00 0.00 26 1011.8
20260503185107 74 51 6.0 12.0 0.00 0.00 0.00 24 1012.0
20260503184603 74 101 3.0 10.0 0.00 0.00 0.00 24 1012.1
20260503183603 74 33 2.0 13.0 0.00 0.00 0.00 26 1012.4
20260503183103 74 43 7.0 13.0 0.00 0.00 0.00 24 1012.4
20260503182604 74 89 7.0 13.0 0.00 0.00 0.00 23 1012.4
20260503182103 73 65 7.0 13.0 0.00 0.00 0.00 24 1012.5
20260503181604 74 37 7.0 13.0 0.00 0.00 0.00 24 1012.5
20260503181103 73 22 3.0 8.0 0.00 0.00 0.00 27 1012.6
20260503180603 72 47 2.0 7.0 0.00 0.00 0.00 28 1012.8
20260503180103 72 46 5.0 12.0 0.00 0.00 0.00 25 1012.8
20260503175604 73 40 3.0 10.0 0.00 0.00 0.00 25 1012.9
20260503175103 72 41 5.0 12.0 0.00 0.00 0.00 26 1012.9
20260503174603 72 354 4.0 15.0 0.00 0.00 0.00 25 1012.9
20260503174103 71 54 7.0 13.0 0.00 0.00 0.00 26 1013.1
20260503173603 71 61 6.0 10.0 0.00 0.00 0.00 24 1013.1
20260503173103 72 42 6.0 13.0 0.00 0.00 0.00 25 1013.2
20260503172603 71 37 6.0 13.0 0.00 0.00 0.00 26 1013.3
20260503172103 71 47 3.0 9.0 0.00 0.00 0.00 28 1013.4
20260503171603 71 305 3.0 7.0 0.00 0.00 0.00 27 1013.5
20260503171103 71 44 6.0 12.0 0.00 0.00 0.00 28 1013.5
20260503170603 71 52 6.0 10.0 0.00 0.00 0.00 27 1013.6
20260503170103 71 41 3.0 9.0 0.00 0.00 0.00 26 1013.6